User: anonymous   Login
Location: Cicognara
(44.9500°N, 10.4667°E)
Time: 20:05:47
(UTC+00:00)
Language:

Okean 1-7 Rocket - Orbit

View from above orbital plane
View from above orbital plane
View from above satellite
View from above satellite

Ground track
Ground track

The orbit data is extracted from the following two-line orbital elements,

1 23318U 94066B   22016.14595020  .00000177  00000-0  20726-4 0  9995
2 23318  82.5398  56.0824 0024345 153.6653 206.5803 14.78946376470039
Epoch (UTC): 16 January 2022 03:30:10
Eccentricity: 0.0024345
inclination: 82.5398°
perigee height: 615 km
apogee height: 650 km
right ascension of ascending node: 56.0824°
argument of perigee: 153.6653°
revolutions per day: 14.78946376
mean anomaly at epoch: 206.5803°
orbit number at epoch: 47003

The dashed part of the orbit path shows where the satellite is in the earth's shadow,  

DLR